Location: Unspecified
(52.1971°N, 0.0000°E)
Time: 11:09:17
(UTC+00:00)

OTV 5 (USA 277) - Visible Passes

Search period start: 15 October 2019 00:00
Search period end: 25 October 2019 00:00
Orbit: 310 x 324 km, 54.5° (Epoch: 08 October)

Date Brightness Start Highest point End Pass type
(mag) Time Alt. Az. Time Alt. Az. Time Alt. Az.
15 Oct ? 03:53:05 22° ENE 03:53:05 22° ENE 03:54:19 10° E visible
15 Oct ? 05:23:59 16° WNW 05:26:01 64° SSW 05:28:44 10° ESE visible
16 Oct ? 04:07:19 32° E 04:07:19 32° E 04:09:00 10° E visible
16 Oct ? 05:38:13 12° W 05:40:29 33° SSW 05:42:59 10° SE visible
17 Oct ? 04:21:37 43° ESE 04:21:37 43° ESE 04:23:36 10° ESE visible
18 Oct ? 04:36:01 37° SSE 04:36:01 37° SSE 04:38:01 10° SE visible
19 Oct ? 04:50:31 21° S 04:50:31 21° S 04:52:05 10° SSE visible
20 Oct ? 05:05:08 11° SSW 05:05:08 11° SSW 05:05:22 10° SSW visible
